Date String (YYYY-MM-DD hh:mm:ss) UTC,Instrument flags,absolute air pressure of the measurement (hPa),sample flow rate (lpm),inlet stack bypass flow (lpm),air temperature of the measurement (°C),ambient temperature measured by the external sensor (°C),aerosol sample conditioner tube jacket temperature (°C),OPC LED temperature (°C),internal box temperature (°C),relative humidity of the measurement (%),span deviation,mass concentration of particles derived from Lorenz-Mie calculation of OPC scattering (μg/m³),mass concentration of particles derived from Lorenz-Mie calculation of OPC scattering (μg/m³),mass concentration of particles derived from Lorenz-Mie calculation of OPC scattering (μg/m³)
DateTimeUTC,F1_M11,P_M11,Q1_M11,Q2_M11,T1_M11,T2_M11,T3_M11,T4_M11,T5_M11,U1_M11,ZSPAN_M11,X0_M11,X2_M11,X1_M11
2023-08-27 11:00:00,SystemResetWarning,0835.3,5.01,000.00,028.7,027.4,000.0,037.2,030.3,34.0,-000.2,0009.08,0006.13,0005.73
2023-08-27 11:01:00,SystemResetWarning,0835.3,5.00,000.00,028.7,027.5,000.0,037.2,030.3,34.1,-000.3,0009.23,0006.10,0005.73
2023-08-27 11:02:00,SystemResetWarning,0835.2,5.00,000.00,028.7,027.5,000.0,037.3,030.3,34.4,-000.3,0009.22,0006.11,0005.73
2023-08-27 11:03:00,SystemResetWarning,0835.2,5.00,000.00,028.7,027.5,000.0,037.3,030.3,34.2,-000.0,0009.20,0006.10,0005.73
2023-08-27 11:04:00,SystemResetWarning,0835.3,5.00,000.00,028.7,027.5,000.0,037.3,030.3,34.0,-000.1,0009.52,0006.09,0005.74
2023-08-27 11:05:00,SystemResetWarning,0835.3,4.99,000.00,028.8,027.6,000.0,037.3,030.4,33.9,-000.2,0009.40,0006.07,0005.75
2023-08-27 11:06:00,SystemResetWarning,0835.3,5.00,000.00,028.8,027.3,000.0,037.3,030.3,33.9,-000.2,0009.38,0006.07,0005.75
2023-08-27 11:07:00,SystemResetWarning,0835.3,5.01,000.00,028.7,025.5,000.0,037.2,030.1,34.0,-000.5,0009.43,0006.08,0005.75
2023-08-27 11:08:00,SystemResetWarning,0835.2,5.02,000.00,028.6,024.4,000.0,037.0,029.8,34.1,-000.1,0009.43,0006.08,0005.78
2023-08-27 11:09:00,SystemResetWarning,0835.1,5.00,000.00,028.5,024.4,000.0,037.0,029.5,34.4,0000.4,0009.38,0006.07,0005.79
2023-08-27 11:10:00,SystemResetWarning,0835.2,5.00,000.00,028.4,024.7,000.0,037.1,029.5,34.6,0000.8,0009.35,0006.07,0005.79
2023-08-27 11:11:00,SystemResetWarning,0835.2,5.00,000.00,028.3,025.1,000.0,037.1,029.6,34.7,0001.1,0009.58,0006.09,0005.81
2023-08-27 11:12:00,SystemResetWarning,0835.2,5.00,000.00,028.3,025.5,000.0,037.1,029.7,34.8,0000.3,0009.85,0006.10,0005.81
2023-08-27 11:13:00,SystemResetWarning,0835.2,4.99,000.00,028.3,025.8,000.0,037.0,029.8,34.8,-000.1,0009.84,0006.09,0005.80
2023-08-27 11:14:00,SystemResetWarning,0835.2,4.99,000.00,028.3,026.1,000.0,037.0,029.8,34.7,-000.3,0009.83,0006.09,0005.81
2023-08-27 11:15:00,SystemResetWarning,0835.2,5.01,000.00,028.3,026.3,000.0,037.0,029.9,34.8,-000.7,0009.49,0006.10,0005.81
2023-08-27 11:16:00,SystemResetWarning,0835.3,5.01,000.00,028.4,026.5,000.0,037.0,029.9,34.7,-000.8,0009.47,0006.10,0005.81
2023-08-27 11:17:00,SystemResetWarning,0835.2,4.99,000.00,028.4,026.7,000.0,037.0,030.0,34.7,-001.0,0009.53,0006.13,0005.81
2023-08-27 11:18:00,SystemResetWarning,0835.3,5.00,000.00,028.4,026.8,000.0,037.0,030.0,34.6,-001.2,0009.52,0006.14,0005.82
2023-08-27 11:19:00,SystemResetWarning,0835.2,4.99,000.00,028.4,027.0,000.0,037.0,030.0,34.7,-001.3,0009.57,0006.19,0005.83
2023-08-27 11:20:00,SystemResetWarning,0835.3,5.00,000.00,028.4,027.1,000.0,037.0,030.1,34.8,-001.4,0009.59,0006.20,0005.84
2023-08-27 11:21:00,SystemResetWarning,0835.3,5.00,000.00,028.5,027.2,000.0,037.0,030.1,34.7,-000.8,0009.61,0006.21,0005.85
2023-08-27 11:22:00,SystemResetWarning,0835.3,5.00,000.00,028.5,027.2,000.0,037.1,030.1,34.6,-000.7,0009.46,0006.20,0005.83
2023-08-27 11:23:00,SystemResetWarning,0835.3,5.01,000.00,028.5,027.3,000.0,037.1,030.1,34.6,-000.8,0009.17,0006.19,0005.83
2023-08-27 11:24:00,SystemResetWarning,0835.3,5.00,000.00,028.5,027.3,000.0,037.1,030.2,34.5,-000.3,0009.50,0006.19,0005.82
2023-08-27 11:25:00,SystemResetWarning,0835.3,5.01,000.00,028.6,027.4,000.0,037.1,030.2,34.5,-000.0,0009.62,0006.16,0005.79
2023-08-27 11:26:00,SystemResetWarning,0835.2,5.00,000.00,028.6,027.4,000.0,037.1,030.2,34.6,-000.1,0009.60,0006.14,0005.78
2023-08-27 11:27:00,SystemResetWarning,0835.2,4.99,000.00,028.6,027.5,000.0,037.1,030.2,34.6,-000.2,0009.57,0006.12,0005.76
2023-08-27 11:28:00,SystemResetWarning,0835.2,4.99,000.00,028.6,027.5,000.0,037.2,030.2,34.5,-000.0,0009.99,0006.06,0005.74
2023-08-27 11:29:00,SystemResetWarning,0835.2,5.00,000.00,028.6,027.5,000.0,037.2,030.3,34.4,0000.6,0009.92,0006.01,0005.72
2023-08-27 11:30:00,SystemResetWarning,0835.2,5.00,000.00,028.7,027.5,000.0,037.2,030.3,34.2,0000.2,0009.77,0005.92,0005.67
2023-08-27 11:31:00,SystemResetWarning,0835.2,5.00,000.00,028.7,027.6,000.0,037.2,030.3,34.1,-000.4,0009.69,0005.86,0005.62
2023-08-27 11:32:00,SystemResetWarning,0835.3,5.00,000.00,028.7,027.6,000.0,037.2,030.3,34.1,-000.3,0009.67,0005.80,0005.58
2023-08-27 11:33:00,SystemResetWarning,0835.2,4.99,000.00,028.7,027.6,000.0,037.2,030.4,33.9,-000.8,0009.58,0005.78,0005.55
2023-08-27 11:34:00,SystemResetWarning,0835.2,5.00,000.00,028.8,027.7,000.0,037.3,030.4,33.8,-001.4,0009.32,0005.80,0005.54
2023-08-27 11:35:00,SystemResetWarning,0835.2,4.99,000.00,028.8,027.1,000.0,037.2,030.3,33.7,-001.3,0009.12,0005.85,0005.59
2023-08-27 11:36:00,SystemResetWarning,0835.2,5.00,000.00,028.7,025.2,000.0,037.1,030.1,33.8,-001.4,0008.89,0005.88,0005.62
2023-08-27 11:37:00,SystemResetWarning,0835.2,5.00,000.00,028.6,024.4,000.0,037.0,029.8,34.0,-000.9,0008.94,0005.89,0005.62
2023-08-27 11:38:00,SystemResetWarning,0835.3,5.01,000.00,028.5,024.5,000.0,037.0,029.5,34.3,-001.0,0008.96,0005.89,0005.61
2023-08-27 11:39:00,SystemResetWarning,0835.2,5.01,000.00,028.4,024.8,000.0,037.0,029.6,34.6,-000.6,0008.49,0005.89,0005.62
2023-08-27 11:40:00,SystemResetWarning,0835.2,5.00,000.00,028.3,025.2,000.0,037.0,029.7,34.7,-000.7,0008.57,0005.94,0005.62
2023-08-27 11:41:00,SystemResetWarning,0835.2,4.99,000.00,028.3,025.6,000.0,037.0,029.7,34.8,-000.3,0008.77,0006.01,0005.63
2023-08-27 11:42:00,SystemResetWarning,0835.3,5.00,000.00,028.3,025.9,000.0,037.0,029.8,34.9,-000.4,0009.10,0006.02,0005.64
2023-08-27 11:43:00,SystemResetWarning,0835.3,5.00,000.00,028.3,026.2,000.0,037.0,029.9,34.9,-000.5,0009.41,0006.04,0005.65
2023-08-27 11:44:00,SystemResetWarning,0835.2,4.99,000.00,028.4,026.4,000.0,037.0,029.9,35.0,-000.3,0009.63,0006.05,0005.66
2023-08-27 11:45:00,SystemResetWarning,0835.3,5.01,000.00,028.4,026.6,000.0,037.0,030.0,35.1,0000.2,0009.65,0006.02,0005.65
2023-08-27 11:46:00,SystemResetWarning,0835.2,4.99,000.00,028.6,026.8,000.0,037.0,030.1,34.6,0000.4,0009.58,0005.96,0005.60
2023-08-27 11:47:00,SystemResetWarning,0835.2,5.00,000.00,028.8,026.9,000.0,037.0,030.2,34.3,0000.4,0009.56,0005.94,0005.58
2023-08-27 11:48:00,SystemResetWarning,0835.2,5.01,000.00,028.9,027.0,000.0,037.1,030.2,34.2,0000.4,0009.63,0005.94,0005.58
2023-08-27 11:49:00,SystemResetWarning,0835.2,4.99,000.00,028.9,027.1,000.0,037.1,030.2,34.1,0000.7,0009.76,0005.96,0005.58
2023-08-27 11:50:00,SystemResetWarning,0835.3,4.99,000.00,029.0,027.2,000.0,037.2,030.2,33.9,0000.1,0009.97,0006.00,0005.58
2023-08-27 11:51:00,SystemResetWarning,0835.3,5.00,000.00,029.0,027.3,000.0,037.2,030.2,33.9,-000.2,0009.89,0005.98,0005.58
2023-08-27 11:52:00,SystemResetWarning,0835.3,5.01,000.00,029.0,027.3,000.0,037.3,030.3,33.9,-000.2,0009.75,0005.94,0005.58
2023-08-27 11:53:00,SystemResetWarning,0835.3,5.01,000.00,029.1,027.4,000.0,037.3,030.3,33.8,-000.1,0009.41,0005.97,0005.60
2023-08-27 11:54:00,SystemResetWarning,0835.4,4.99,000.00,029.1,027.4,000.0,037.4,030.3,33.8,0000.0,0009.75,0005.97,0005.60
2023-08-27 11:55:00,SystemResetWarning,0835.3,5.00,000.00,029.1,027.5,000.0,037.4,030.3,33.8,0000.6,0009.74,0005.97,0005.60
2023-08-27 11:56:00,SystemResetWarning,0835.3,5.00,000.00,029.1,027.5,000.0,037.4,030.4,33.8,0000.4,0009.64,0005.98,0005.61
2023-08-27 11:57:00,SystemResetWarning,0835.3,5.00,000.00,029.1,027.6,000.0,037.5,030.4,33.7,0000.2,0009.69,0006.00,0005.62
2023-08-27 11:58:00,SystemResetWarning,0835.3,5.00,000.00,029.1,027.6,000.0,037.5,030.4,33.6,0000.3,0009.76,0006.04,0005.65
2023-08-27 11:59:00,SystemResetWarning,0835.4,5.01,000.00,029.2,027.6,000.0,037.5,030.4,33.7,0000.1,0009.72,0006.06,0005.67
